Location: Rife
(54.1814°N, 111.0275°W)
Time: 16:32:01
(UTC+00:00)

N. Korean satellite - Visible Passes

Search period start: 02 December 2021 00:00
Search period end: 12 December 2021 00:00
Orbit: 447 x 495 km, 97.3° (Epoch: 01 December)

Date Brightness Start Highest point End Pass type
(mag) Time Alt. Az. Time Alt. Az. Time Alt. Az.
02 Dec 9.6 00:46:30 10° SW 00:48:56 17° W 00:51:21 10° NW visible
02 Dec 8.9 12:03:46 10° NE 12:06:33 23° E 12:09:18 10° SSE visible
02 Dec 7.0 13:36:43 10° N 13:39:50 33° WNW 13:42:54 10° SW visible
03 Dec 8.5 00:17:01 10° SSW 00:20:14 32° W 00:23:26 10° NNW visible
03 Dec 9.8 11:36:21 10° ENE 11:37:46 12° E 11:39:11 10° ESE visible
03 Dec 6.3 13:08:01 10° N 13:11:25 68° WNW 13:14:46 10° SSW visible
03 Dec 7.0 23:48:07 10° S 23:51:38 66° WSW 23:55:07 10° NNW visible
04 Dec 7.0 12:39:31 10° NNE 12:42:53 56° E 12:46:13 10° S visible
04 Dec 8.0 14:13:36 10° NNW 14:15:44 16° WNW 14:17:49 10° W visible
05 Dec 9.7 00:54:39 10° SW 00:56:39 14° W 00:58:40 10° NW visible
05 Dec 8.5 12:11:16 10° NE 12:14:14 27° E 12:17:10 10° SSE visible
05 Dec 7.3 13:44:27 10° N 13:47:25 28° WNW 13:50:20 10° SW visible
06 Dec 8.9 00:24:52 10° SSW 00:27:54 27° W 00:30:55 10° NW visible
06 Dec 9.6 11:43:30 10° NE 11:45:27 14° E 11:47:23 10° SE visible
06 Dec 6.4 13:15:39 10° N 13:18:59 55° WNW 13:22:19 10° SSW visible
06 Dec 7.4 23:55:47 10° S 23:59:14 54° W 00:02:39 10° NNW visible
07 Dec 6.6 12:47:03 10° NNE 12:50:27 70° ESE 12:53:49 10° S visible
07 Dec 8.2 14:21:27 10° NNW 14:23:12 14° WNW 14:24:58 10° W visible
08 Dec 9.9 01:02:53 10° WSW 01:04:18 12° W 01:05:43 10° WNW visible
08 Dec 8.1 12:18:41 10° NNE 12:21:48 33° E 12:24:53 10° SSE visible
08 Dec 7.5 13:52:07 10° N 13:54:53 24° WNW 13:57:39 10° WSW visible
09 Dec 9.2 00:32:40 10° SSW 00:35:28 22° W 00:38:17 10° NW visible
09 Dec 9.3 11:50:42 10° NE 11:53:02 17° E 11:55:21 10° SE visible
09 Dec 6.6 13:23:12 10° N 13:26:28 45° WNW 13:29:43 10° SW visible
10 Dec 7.8 00:03:24 10° S 00:06:45 44° W 00:10:04 10° NNW visible
10 Dec 6.6 12:54:31 10° NNE 13:00:14 19° SSW 13:01:19 10° SSW visible
10 Dec 8.3 14:29:19 10° NW 14:30:35 12° WNW 14:31:25 11° WNW visible
11 Dec 8.4 12:26:02 10° NNE 12:32:03 13° SSE 12:32:28 10° S visible
11 Dec 7.8 13:59:41 10° NNW 14:06:09 - WSW 14:01:53 20° NW visible
